Погода в Никитино

Россия / Калужская область     54°45′40″N   36°50′36″E
темп.,
°C
ветер,
м/с
пор.,
м/с
влажн.,
%
обл.,
%
осадки,
мм/ч
давл.,
гПа
погр.,
м
8 марта, пн
пн800:00−8зюз414860 0.0 998492
03:00−8зюз5138816 0.0 998532
06:00−7з61293100 0.3 997865
09:00−7зсз71187100 0.7 9991209
12:00−6зсз5883100 0.1 1002921
15:00−5зсз4678100 0.1 1005988
18:00−7зсз389190 0.1 1007408
21:00−9ссз249694 0.4 1010120
9 марта, вт
вт900:00−13ссз269772 0.1 1011120
03:00−15ссз259758 0.1 101385
06:00−16ссз369867 0.0 1015127
09:00−15ссз369264 0.0 1017326
12:00−11сз358587 0.0 1018610
15:00−10сз478094 0.1 1018830
18:00−13ссз368885 0.0 1019187
21:00−17ссз239343 0.0 102257
10 марта, ср
ср1000:00−19ссз22960 0.0 102420
03:00−20ссв129931 0.0 102520
06:00−20св119688 0.0 102525
09:00−18в239093 0.0 1026219
12:00−15в2383100 0.0 1027324
15:00−13в2476100 0.0 1027503
18:00−16в228625 0.0 102720
21:00−20в239313 0.0 103022
11 марта, чт
чт1100:00−21вюв12920 0.0 103120
03:00−22юв11921 0.0 103220
06:00−23юв11927 0.0 103320
09:00−18юв12877 0.0 1033114
12:00−13ююв23740 0.0 1033443
15:00−11ююв34750 0.0 1032511
18:00−15ююв23890 0.0 103177
21:00−19ююв37910 0.0 1032130
12 марта, пт
пт1200:00−20ю49860 0.0 1032211
03:00−20ю411900 0.0 1031246
06:00−19ююв5128719 0.0 1029266
09:00−15ююв6129052 0.0 1026339
12:00−9ю71583100 0.0 1024572
15:00−6ю81581100 0.0 1020912
18:00−6ю91791100 0.8 10181235
21:00−4ю91791100 1.8 10151254